Hobbyimkerei Kesten eine Bienen Ranch  im Werra Meißner Kreis

 

 Hyperthermie  

Es begann in unser Hobbyimkerei  im Jahr 2016 mal die Möglichkeiten kennen zu lernen und zu testen 

Es wurde eine Varroa Kill 2 an geschafft   http://www.silentfuturetec.at/index.php/varroa-kill-ii

 Der Anfang sich mit der Materie vertraut zu machen 

Die ersten nach vollziehbaren Daten eines Temperaturfensters  von einem Leerrrähmchen Zargen Test Programm der Varrao kill

 Hier mal ein Durchgangsverlauf  des Temperaturfensters zwar primitiv aber ein paar Zahlen zum etwas  nachvollziehen vielleicht intressiert das jemanden hier   da gibts auch einiges sicher im Laufe der Zeit mit  mehr Infos zum Thema 

Bei Meßpunkt 111 geht die Varroa kill in Arbeit Nach der Uhrzeit alle 10 min. kommt Temperatur und die 2 letzten Zahlen sind Luftfeuchte

110 31.01.16 09:17:47 18,6 37
111 31.01.16 09:27:47 15,5 43 Start
112 31.01.16 09:37:47 28,6 78
113 31.01.16 09:47:47 41 55
114 31.01.16 09:57:47 42,8 52
115 31.01.16 10:07:47 44,1 51
116 31.01.16 10:17:47 44,4 50
117 31.01.16 10:27:47 45,3 42
118 31.01.16 10:37:47 45,2 44
119 31.01.16 10:47:47 45,1 44
120 31.01.16 10:57:47 45,1 43
121 31.01.16 11:07:47 44,6 42
122 31.01.16 11:17:47 44,3 42
123 31.01.16 11:27:47 43,7 42
124 31.01.16 11:37:47 44 41
125 31.01.16 11:47:47 44,3 41
126 31.01.16 11:57:47 44,4 40
127 31.01.16 12:07:47 44,4 40
128 31.01.16 12:17:47 43,9 40
129 31.01.16 12:27:47 43,9 39 Ende 12:27:47
130 31.01.16 12:37:47 42,9 49
131 31.01.16 12:47:47 41,2 51
132 31.01.16 12:57:47 39,5 54
133 31.01.16 13:07:47 38 55
134 31.01.16 13:17:47 36,5 55
135 31.01.16 13:27:47 35,2 55
136 31.01.16 13:37:47 33,9 57
137 31.01.16 13:47:47 32,6 57
138 31.01.16 13:57:47 31,5 57
139 31.01.16 14:07:47 30,4 57
140 31.01.16 14:17:47 29,4 58
141 31.01.16 14:27:47 28,4 58
142 31.01.16 14:37:47 27,1 59
143 31.01.16 14:47:47 26,1 60
144 31.01.16 14:57:47 25,7 60
145 31.01.16 15:07:47 24,9 61
146 31.01.16 15:17:47 24,1 61
147 31.01.16 15:27:47 23,4 62
148 31.01.16 15:37:47 22,6 60
149 31.01.16 15:47:47 22 59
31.01.16 15:57:09 21,5 54
 

Kurze Zeit später kam dann noch die Anschaffung eines Varro Grill mit in den Fokus 


 

Hier mal als Anschau Info zum Thema an einem unserer Aussenstandorte ein Arbeitseinsatz      https://www.youtube.com/watch?time_continue=22&v=c7KUFGjDXgY 

Test und erstes behandeln am Ausssenstand  https://www.youtube.com/watch?v=debyBGsJsEE&index=17&t=0s&list=PLQUpKrNLR9mPnhgZOxkWd78jDtDqhDuB2